Location: Newark
(45.2500°N, 7.5833°E)
Time: 15:52:40
(UTC+00:00)

A-11 Canister half - Pass Details

Date: 04 February 2020
Orbit: 1525 x 1684 km, 47.3° (Epoch: 17 February)

Event Time Altitude Azimuth Distance (km) Brightness Sun altitude
Rises 16:45:43 0° 267° (W) 4,672 13.3 -1.7°
Reaches altitude 10° 16:48:45 10° 268° (W) 3,693 12.5 -2.2°
Maximum altitude 16:58:05 80° 356° (N) 1,569 9.1 -3.7°
Drops below altitude 10° 17:07:40 10° 84° (E) 3,777 10.4 -5.3°
Enters shadow 17:09:07 - 85° (E) 4,239 10.7 -5.6°
Sets 17:10:48 0° 86° (E) 4,783 - -5.9°
